STARLINK-1795, 46696

Orbit data source: Space-Track

STARLINK-1795, 46696 is a payload satellite owned by SpaceX/Seattle (US) in LEO that was launched on Sun, 18 Oct 2020 UTC via an FALCON 9 launch vehicle from the Air Force Eastern Test Range (AFETR). Payload-class satellites include a variety of spacecraft equipped with specific instruments for various scientific and technological missions. These include communications satellites like Starlink; space stations such as the ISS; scientific satellites like the Hubble; Earth observation satellites from companies like Planet Labs, Umbra, and HawkEye 360; GPS; miniature CubeSats for education and research; and military/defense satellites.

Loading next visibility...
Identifier
46696, 2020-073AC
Orbit
LEO
Country
Flag of USUS
Related business
Manufacturer
SpaceX/Seattle
Mission
Partially operational Commercial Communications
Bus & Motor
STARLINK, Unknown motor
Mass
260 kg wet, ~248 kg dry
Launch date (UTC)
2020-10-18 (5 years ago)
Launch vehicle
FALCON 9
Launch site
Air Force Eastern Test Range (AFETR)
Object type
Payload
Rocket body
Debris
Shape & HBR
Box + 1 Pan, 10.1 m
Radar Cross Section
13.562 m², Large (>1 m²)

Expand to show TLE details & history
Last TLE update: 6 hours ago

TLE from 6 hours ago
0 STARLINK-1795
1 46696U 20073AC  25308.66670139  .00116837  00000-0  32523-2 0  9992
2 46696  53.0562  61.3248 0001843  74.1094   7.4802 15.35935065  5805
Epoch: 2025-11-04T16:00Z
TLE epoch observation values (Epoch: 2025-11-04T16:00:03.000Z)
Latitude
52.39711°
Longitude
-146.66949°
Altitude
463.248 km
Speed
7.642 km/s
True Right ascension
09h 09m 58s
True Declination
52° 13' 25"
Sunlit
Object was in daylight at epoch
Visualization orbit readout
Latitude
Unknown
Longitude
Unknown
Altitude
Unknown
Speed
Unknown
Apparent Right ascension
Unknown
Apparent Declination
Unknown
Sunlit
N/A
Visualization observer readout
Local Sidereal Time
17:47:52
Azimuth
Unknown
Elevation
Unknown
Doppler factor
Unknown
Orbital elements
Apogee altitude
459.678 km
Perigee altitude
457.158 km
Semi-major axis
6,836.555 km
Eccentricity
0.00018
Inclination
53.0562°
RAAN
61.3248°
Arg. of periapsis
74.1094°
True anomaly
7.48295°
Mean anomaly
7.4802°
Eccentric anomaly
7.48157°
Mean motion
3.83961 °/min
Orbital period
93.76 mins
BSTAR
0.0032523
Loading maneuver chart data...
Computing Atmospheric mass density...
Loading historical data...
Loading historical data...
Loading historical data...
Loading historical data...
Loading historical data...
Loading historical data...
Loading historical data...

Documentation

Showing up to 5 results
|